Regional Weather Roundup
Issued by NWS

Home | Current Version | Previous Version | Text Only | Print | Product List | Glossary On
Versions: 1 2 3 4 5 6 7 8 9 10 11 12 13 14 15 16 17 18 19 20 21 22 23 24 25 26 27 28 29 30 31 32 33 34 35 36 37 38 39 40 41 42 43 44 45 46 47 48 49 50
000
ASUS43 KOAX 212210
RWRNE

WEATHER ROUNDUP FOR NEBRASKA
NATIONAL WEATHER SERVICE OMAHA NE
500 PM CDT MON AUG 21 2017

NOTES: SATELLITE DATA IS BEING USED TO AUGMENT CLOUD COVER ABOVE
       12000 FEET.
       "FAIR" INDICATES FEW OR NO CLOUDS BELOW 12,000 FEET WITH NO
       SIGNIFICANT WEATHER AND/OR OBSTRUCTIONS TO VISIBILITY.


NEZ001>004-019>022-054>056-212300-
NEBRASKA PANHANDLE

CITY           SKY/WX    TMP DP  RH WIND       PRES   REMARKS
SCOTTSBLUFF    SUNNY     84  46  26 NE12      30.13R
ALLIANCE       SUNNY     80  47  31 N18G30    30.11R
CHADRON        SUNNY     84  46  26 NE14G22   30.10S
GORDON         FAIR      81  53  37 N15G25    30.10R
KIMBALL        SUNNY     81  50  34 N14G23    30.17R
SIDNEY         SUNNY     84  53  34 NE22G29   30.13R
$$

NEZ057>060-069>072-079>082-212300-
SOUTHWEST NEBRASKA

CITY           SKY/WX    TMP DP  RH WIND       PRES   REMARKS
NORTH PLATTE   CLOUDY    83  70  64 NE8       29.98R
IMPERIAL       MOSUNNY   85  66  53 N16       30.00R
LEXINGTON      PTSUNNY   84  66  53 S7        29.95F
MCCOOK         PTSUNNY   86  63  45 SW6       29.95S
OGALLALA       PTSUNNY   85  64  48 N12G17    30.03R
$$

NEZ005>010-023>029-035>040-094-212300-
NORTH CENTRAL NEBRASKA

CITY           SKY/WX    TMP DP  RH WIND       PRES   REMARKS
VALENTINE      PTSUNNY   80  61  52 N15G22    30.03R
AINSWORTH      CLOUDY    75  68  78 NE3       30.03R
BROKEN BOW     PTSUNNY   84  70  62 N9        29.97R
O`NEILL        CLOUDY    72  66  80 SW3       29.97S
ORD            SUNNY     81  67  62 N12       29.94R
THEDFORD       CLOUDY    75  67  75 N7        30.05R
$$

NEZ041-046>049-061>064-073>077-083>087-212300-
SOUTH CENTRAL NEBRASKA

CITY           SKY/WX    TMP DP  RH WIND       PRES   REMARKS
GRAND ISLAND   PTSUNNY   85  69  58 S10       29.94S
AURORA         PTSUNNY   86  68  54 SW12      29.94S
HASTINGS       CLOUDY    86  67  52 SW12G17   29.95F
HEBRON         CLOUDY    84  71  63 S9        29.94F
HOLDREGE       CLOUDY    85  64  48 S6        29.95F
KEARNEY        PTSUNNY   83  68  60 SW9       29.95S
YORK           MOSUNNY   82  72  69 SW10      29.94S
$$

NEZ011>018-030>034-042>045-212300-
NORTHEAST NEBRASKA

CITY           SKY/WX    TMP DP  RH WIND       PRES   REMARKS
NORFOLK        CLOUDY    75  66  73 NE10      29.94R
ALBION         MOSUNNY   78  68  70 NE7       29.94S
BLAIR          CLOUDY    82  73  76 CALM      29.96R
COLUMBUS       MOSUNNY   80  69  69 E13       29.93F
FREMONT        PTSUNNY   83  72  69 SW3       29.96R
TEKAMAH        CLOUDY    73  64  73 N14G28    29.98R
WAYNE          MOSUNNY   73  70  91 E16G22    29.92F
$$

NEZ050>053-065>068-078-088>093-212300-
SOUTHEAST NEBRASKA

CITY           SKY/WX    TMP DP  RH WIND       PRES   REMARKS
LINCOLN        MOSUNNY   83  71  67 S10       29.93F
OMAHA EPPLEY   PTSUNNY   82  72  71 S5        29.94R
BEATRICE       CLOUDY    85  72  65 S13       29.93F HX  91
FALLS CITY     CLOUDY    84  74  71 S9        29.95R HX  91
NEBRASKA CITY  MOSUNNY   85  74  70 SW12      29.95R HX  92
PLATTSMOUTH    PTSUNNY   82  71  68 S10G18    29.95R
$$

NEZ044-045-051>053-067-212300-
OMAHA AREA

CITY           SKY/WX    TMP DP  RH WIND       PRES   REMARKS
OMAHA EPPLEY   PTSUNNY   82  72  71 S5        29.94R
BLAIR          CLOUDY    82  73  76 CALM      29.96R
FREMONT        PTSUNNY   83  72  69 SW3       29.96R
MILLARD        CLOUDY    85  74  70 S8        29.95R HX  92
OFFUTT AFB     CLOUDY    84  73  69 S7        29.93R HX  90
PLATTSMOUTH    PTSUNNY   82  71  68 S10G18    29.95R
WAHOO          CLOUDY    83  72  69 SW7       29.96R
$$



USA.gov is the U.S. government's official web portal to all federal, state and local government web resources and services.